Retour au catalogue

CZ-6A DEB

ActifPO
NORAD 55516·DEBRIS·🇨🇳 China

Lancé Nov 11, 2022 depuis Taiyuan Satellite Launch Center

Loading…

Prochains Passages (prochaines 24 heures)

TLE

FraisSource: Space-Track

Époque: Sep 13, 2026, 04:58 UTC

1 55516U 22151XN  26256.20719833  .00080052  00000-0  34431-2 0  9999
2 55516  98.5804 350.0284 0024237 264.5419  95.3048 15.22042768199824

Suivez CZ-6A DEB en temps réel avec AllMySat

Download on the App Store